Weather History for Douglas, WY

Change the Weather History Date:

Wednesday, December 5, 2012

  Actual Average Record
Temperature  
Mean Temperature 55 °F 25 °F  
Max Temperature 64 °F 38 °F 64 °F (2012)
Min Temperature 45 °F 12 °F -18 °F (2013)
Degree Days  
Heating Degree Days 10 40  
Month to date heating degree days 99 197  
Since 1 July heating degree days 1646 2019  
Cooling Degree Days 0 0  
Month to date cooling degree days 0 0  
Year to date cooling degree days 831 486  
Growing Degree Days 4 (Base 50)    
Moisture  
Dew Point 30 °F    
Average Humidity 40    
Maximum Humidity 54    
Minimum Humidity 26    
Precipitation  
Precipitation 0.00 in 0.01 in 0.07 in (2000)
Month to date precipitation T 0.07  
Year to date precipitation 5.26 13.06  
Sea Level Pressure  
Sea Level Pressure 29.81 in    
Wind  
Wind Speed 22 mph (West)    
Max Wind Speed 38 mph    
Max Gust Speed 48 mph    
Visibility 10 miles    
Events      
T = Trace of Precipitation, MM = Missing Value Source: NWS Daily Summary

Daily Weather History Graph

Daily Weather History Graph

Search for Another Location

Airport:

Trip Planner

Search our weather history database for the weather conditions in past years. The results will help you decide how hot, cold, wet, or windy it might be!

Date:

Astronomy

Dec. 05, 2012 Rise Set
Actual Time 7:17 AM MST 4:27 PM MST
Civil Twilight 6:45 AM MST 4:59 PM MST
Nautical Twilight 6:09 AM MST 5:34 PM MST
Astronomical Twilight 5:35 AM MST 6:09 PM MST
Moon 11:27 PM MST (12/5) 11:35 AM MST (12/5)
Length of Visible Light 10h 14m
Length of Day
9h 10m
Waning Gibbous, 59% of the Moon is Illuminated
Dec 5
Waning Gibbous
Dec 6
Last Quarter
Dec 13
New
Dec 19
First Quarter
Dec 28
Full

Hourly Weather History & Observations

Time (MST) Temp. Windchill Dew Point Humidity Pressure Visibility Wind Dir Wind Speed Gust Speed Precip Events Conditions
12:53 AM 46.9 °F - 28.9 °F 50% 29.99 in 10.0 mi WSW 10.4 mph - N/A   Clear
1:53 AM 51.1 °F - 30.0 °F 44% 29.94 in 10.0 mi WSW 17.3 mph 25.3 mph N/A   Clear
2:53 AM 50.0 °F - 30.9 °F 48% 29.92 in 10.0 mi WSW 15.0 mph - N/A   Clear
3:53 AM 52.0 °F - 30.9 °F 45% 29.90 in 10.0 mi West 16.1 mph 28.8 mph N/A   Clear
4:53 AM 52.0 °F - 32.0 °F 47% 29.89 in 10.0 mi West 20.7 mph 28.8 mph N/A   Clear
5:53 AM 53.1 °F - 32.0 °F 45% 29.87 in 10.0 mi West 20.7 mph 32.2 mph N/A   Clear
7:53 AM 52.0 °F - 30.9 °F 45% 29.87 in 10.0 mi West 18.4 mph 24.2 mph N/A   Clear
8:53 AM 55.0 °F - 30.9 °F 40% 29.84 in 10.0 mi West 29.9 mph 39.1 mph N/A   Clear
9:53 AM 57.0 °F - 30.0 °F 36% 29.81 in 10.0 mi West 26.5 mph 39.1 mph N/A   Clear
10:53 AM 59.0 °F - 28.9 °F 32% 29.79 in 10.0 mi WNW 25.3 mph 33.4 mph N/A   Clear
12:53 PM 61.0 °F - 28.0 °F 29% 29.71 in 10.0 mi West 32.2 mph 39.1 mph N/A   Clear
1:53 PM 59.0 °F - 28.9 °F 32% 29.70 in 10.0 mi West 27.6 mph 39.1 mph N/A   Clear
2:53 PM 57.0 °F - 28.9 °F 34% 29.70 in 10.0 mi West 23.0 mph 34.5 mph N/A   Clear
3:53 PM 55.0 °F - 30.0 °F 38% 29.70 in 10.0 mi West 19.6 mph 29.9 mph N/A   Partly Cloudy
4:53 PM 54.0 °F - 28.9 °F 38% 29.71 in 10.0 mi West 26.5 mph 32.2 mph N/A   Clear
5:53 PM 53.1 °F - 30.9 °F 43% 29.72 in 10.0 mi West 20.7 mph 32.2 mph N/A   Clear
6:53 PM 52.0 °F - 32.0 °F 47% 29.72 in 10.0 mi West 27.6 mph 35.7 mph N/A   Clear
7:53 PM 50.0 °F - 32.0 °F 50% 29.78 in 10.0 mi West 18.4 mph 28.8 mph N/A   Clear
8:53 PM 48.9 °F - 32.0 °F 52% 29.79 in 10.0 mi West 20.7 mph - N/A   Overcast
9:53 PM 48.0 °F - 30.9 °F 52% 29.79 in 10.0 mi West 17.3 mph - N/A   Overcast
10:53 PM 48.0 °F - 30.0 °F 50% 29.81 in 10.0 mi WNW 23.0 mph - N/A   Overcast
11:53 PM 46.0 °F 39.3 °F 30.9 °F 56% 29.84 in 10.0 mi NW 16.1 mph 21.9 mph N/A   Overcast